User: anonymous   Login
Location: Bangkok
(13.7500°N, 100.5170°E)
Time: 19:52:38
(UTC+07:00)
Language:

Cosmos 1898 Rocket - Orbit

View from above orbital plane
View from above orbital plane
View from above satellite
View from above satellite

Ground track
Ground track

The orbit data is extracted from the following two-line orbital elements,

1 18586U 87098B   15185.17565932 -.00000022  00000-0  14810-5 0  9992
2 18586 074.0054 169.9800 0020303 032.3452 046.8269 14.36633186444828
Epoch (UTC): 04 July 2015 04:12:56
Eccentricity: 0.0020303
inclination: 74.0054°
perigee height: 755 km
apogee height: 784 km
right ascension of ascending node: 169.9800°
argument of perigee: 32.3452°
revolutions per day: 14.36633186
mean anomaly at epoch: 46.8269°
orbit number at epoch: 44482

The dashed part of the orbit path shows where the satellite is in the earth's shadow,  

DLR